Location: Amon Carter Post Office
(32.8281°N, 97.0484°W)
Time: 08:48:48
(UTC+00:00)

H-2A R/B - Pass Details

Date: 06 July 2022
Orbit: 576 x 652 km, 98.5° (Epoch: 13 August)

Event Time Altitude Azimuth Distance (km) Brightness Sun altitude
Rises 02:20:51 0° 19° (NNE) 2,953 5.7 -8.2°
Reaches altitude 10° 02:23:07 10° 25° (NNE) 2,047 4.9 -8.6°
Maximum altitude 02:27:27 50° 101° (E) 830 2.4 -9.3°
Drops below altitude 10° 02:31:48 10° 176° (S) 2,049 4.4 -10.1°
Sets 02:34:04 0° 182° (S) 2,955 5.2 -10.5°
